This demonstration page uses our WeatherBlox Daily Observations layout. Learn more.

Left ArrowRight Arrow

Hourly Observations for June 19, 2021

Temp ( °F °C ) Dew Point ( °F °C ) Humidity (%) Winds ( mph kmh ) Pressure ( in mb ) Visibility ( mi km ) Precip ( " mm )
12:53 am 00:53 Clear 58 14.4 40 4.4 51 51 ENE 9 15 29.89 1012 10 16 N/A
1:53 am 01:53 Clear 54 12.2 42 5.6 64 64 E 3 6 29.86 1011 10 16 N/A
2:53 am 02:53 Clear 54 12.2 41 5 62 62 E 9 15 29.84 1010 10 16 N/A
3:53 am 03:53 Clear 54 12.2 40 4.4 59 59 ENE 6 9 29.81 1010 10 16 N/A
4:53 am 04:53 Clear 55 12.8 40 4.4 57 57 ENE 9 15 29.80 1009 10 16 N/A
5:53 am 05:53 Sunny 52 11.1 42 5.6 69 69 ENE 6 9 29.79 1009 10 16 N/A
6:53 am 06:53 Sunny 53 11.7 43 6.1 69 69 SSW 7 11 29.80 1009 10 16 N/A
7:53 am 07:53 Sunny 59 15 44 6.7 58 58 SW 6 9 29.79 1009 10 16 N/A
8:53 am 08:53 Sunny 66 18.9 44 6.7 45 45 WSW 5 7 29.77 1008 10 16 N/A
9:53 am 09:53 Sunny 72 22.2 43 6.1 35 35 WSW 9 15 29.76 1008 10 16 N/A
10:53 am 10:53 Sunny 78 25.6 44 6.7 30 30 W 15 24 29.74 1007 10 16 N/A
11:53 am 11:53 Mostly Sunny 80 26.7 41 5 25 25 NW 10 17 29.73 1007 10 16 N/A
12:53 pm 12:53 Partly Cloudy 83 28.3 43 6.1 24 24 NW 14 22 29.72 1007 10 16 N/A
1:53 pm 13:53 Sunny 76 24.4 48 8.9 37 37 NW 21 33 29.77 1008 10 16 N/A
2:53 pm 14:53 Mostly Sunny 81 27.2 48 8.9 32 32 NNW 22 35 29.75 1008 10 16 N/A
3:53 pm 15:53 Sunny 75 23.9 47 8.3 37 37 N 18 30 29.79 1009 10 16 N/A
4:53 pm 16:53 Mostly Sunny 73 22.8 47 8.3 40 40 N 16 26 29.83 1010 10 16 N/A
5:53 pm 17:53 Cloudy 72 22.2 46 7.8 40 40 NNW 10 17 29.85 1011 10 16 N/A
6:53 pm 18:53 Cloudy 71 21.7 45 7.2 39 39 NNW 9 15 29.84 1011 10 16 N/A
7:53 pm 19:53 Cloudy with Light Rain 67 19.4 49 9.4 53 53 NW 13 20 29.86 1011 10 16 0.00 0.00
8:53 pm 20:53 Cloudy with Light Rain 62 16.7 51 10.6 67 67 NW 10 17 29.87 1012 10 16 0.00 0.00
9:53 pm 21:53 Cloudy with Light Rain 60 15.6 53 11.7 78 78 WNW 7 11 29.88 1012 10 16 0.00 0.00
10:53 pm 22:53 Cloudy 59 15 54 12.2 83 83 W 5 7 29.88 1012 10 16 0.00 0.00
11:53 pm 23:53 Cloudy 58 14.4 55 12.8 90 90 SW 9 15 29.89 1012 10 16 N/A

Powered by AerisWeather